Weather History for Worcester, MA

Change the Weather History Date:

Wednesday, November 27, 2013

  Actual Average Record
Temperature  
Mean Temperature 46 °F 36 °F  
Max Temperature 60 °F 43 °F 66 °F (1896)
Min Temperature 32 °F 29 °F 5 °F (1932)
Degree Days  
Heating Degree Days 19 29  
Month to date heating degree days 691 652  
Since 1 July heating degree days 1289 1313  
Cooling Degree Days 0 0  
Month to date cooling degree days 0 0  
Year to date cooling degree days 572 471  
Moisture  
Dew Point 47 °F    
Average Humidity 95    
Maximum Humidity 100    
Minimum Humidity 89    
Precipitation  
Precipitation 2.57 in 0.14 in 2.57 in (2013)
Month to date precipitation 3.62 3.85  
Year to date precipitation 41.30 43.82  
Sea Level Pressure  
Sea Level Pressure 29.42 in    
Wind  
Wind Speed 15 mph (WSW)    
Max Wind Speed 29 mph    
Max Gust Speed 36 mph    
Visibility 5 miles    
Events Fog , Rain    
T = Trace of Precipitation, MM = Missing Value Source: NWS Daily Summary

Daily Weather History Graph

Daily Weather History Graph

Search for Another Location

Airport:

Trip Planner

Search our weather history database for the weather conditions in past years. The results will help you decide how hot, cold, wet, or windy it might be!

Date:

Astronomy

Nov. 27, 2013 Rise Set
Actual Time 6:52 AM EST 4:17 PM EST
Civil Twilight 6:21 AM EST 4:48 PM EST
Nautical Twilight 5:46 AM EST 5:23 PM EST
Astronomical Twilight 5:13 AM EST 5:56 PM EST
Moon 12:45 AM EST (11/27) 12:59 PM EST (11/27)
Length of Visible Light 10h 27m
Length of Day
9h 24m
Waning Crescent, 32% of the Moon is Illuminated
Nov 27
Waning Crescent
Dec 2
New
Dec 9
First Quarter
Dec 17
Full
Dec 25
Last Quarter

Hourly Weather History & Observations

Time (EST) Temp. Windchill Dew Point Humidity Pressure Visibility Wind Dir Wind Speed Gust Speed Precip Events Conditions
12:54 AM 33.1 °F 26.1 °F 33.1 °F 100% 29.98 in 0.2 mi NE 8.1 mph - 0.12 in Fog , Rain Rain
1:54 AM 33.1 °F 26.9 °F 33.1 °F 100% 29.90 in 0.2 mi NE 6.9 mph - 0.09 in Fog , Rain Light Rain
2:29 AM 34.0 °F 26.6 °F 34.0 °F 100% 29.81 in 0.2 mi NNE 9.2 mph - 0.03 in Fog , Rain Light Rain
2:37 AM 34.0 °F 26.6 °F 34.0 °F 100% 29.81 in 0.2 mi NNE 9.2 mph - 0.04 in Fog , Rain Light Rain
2:54 AM 34.0 °F 27.2 °F 34.0 °F 100% 29.81 in 0.2 mi NNE 8.1 mph - 0.08 in Fog , Rain Light Rain
3:54 AM 37.0 °F 31.0 °F 37.0 °F 100% 29.73 in 0.2 mi ENE 8.1 mph - 0.15 in Fog , Rain Rain
4:24 AM 41.0 °F 35.8 °F 41.0 °F 100% 29.64 in 0.2 mi ESE 8.1 mph - 0.11 in Fog , Rain Rain
4:54 AM 48.0 °F - 48.0 °F 100% 29.62 in 0.8 mi SE 16.1 mph 25.3 mph 0.23 in Rain Heavy Rain
5:00 AM 48.9 °F - 48.9 °F 100% 29.59 in 2.0 mi SE 17.3 mph 25.3 mph 0.02 in Rain Rain
5:14 AM 50.0 °F - 50.0 °F 100% 29.57 in 3.0 mi SE 18.4 mph 25.3 mph 0.08 in Rain Heavy Rain
5:46 AM 51.1 °F - 51.1 °F 100% 29.52 in 2.5 mi SE 23.0 mph 28.8 mph 0.18 in Rain Rain
5:54 AM 52.0 °F - 51.1 °F 97% 29.53 in 2.5 mi SE 18.4 mph 28.8 mph 0.21 in Rain Heavy Rain
6:46 AM 53.1 °F - 52.0 °F 96% 29.46 in 3.0 mi SSE 17.3 mph - 0.33 in Rain Rain
6:54 AM 53.1 °F - 53.1 °F 100% 29.47 in 3.0 mi SSE 16.1 mph 27.6 mph 0.35 in Rain Rain
7:22 AM 57.0 °F - 55.9 °F 96% 29.42 in 2.5 mi South 19.6 mph 28.8 mph 0.11 in Rain Heavy Rain
7:33 AM 57.0 °F - 55.9 °F 96% 29.42 in 3.0 mi South 18.4 mph 29.9 mph 0.15 in Rain Rain
7:54 AM 57.0 °F - 57.0 °F 100% 29.43 in 3.0 mi South 23.0 mph 32.2 mph 0.22 in Rain Heavy Rain
8:07 AM 57.9 °F - 57.0 °F 97% 29.41 in 2.5 mi South 16.1 mph 26.5 mph 0.09 in Rain Heavy Rain
8:19 AM 57.9 °F - 57.9 °F 100% 29.41 in 1.2 mi SSW 13.8 mph 24.2 mph 0.25 in Rain Heavy Rain
8:32 AM 57.9 °F - 57.9 °F 100% 29.40 in 0.8 mi SSW 11.5 mph - 0.45 in Rain Heavy Rain
8:41 AM 57.9 °F - 57.9 °F 100% 29.39 in 1.8 mi South 11.5 mph 19.6 mph 0.50 in Rain Rain
8:54 AM 59.0 °F - 57.9 °F 96% 29.40 in 2.0 mi South 16.1 mph - 0.54 in Rain Rain
9:17 AM 59.0 °F - 57.9 °F 96% 29.37 in 3.0 mi South 18.4 mph 32.2 mph 0.03 in Rain Light Rain
9:27 AM 59.0 °F - 59.0 °F 100% 29.37 in 2.5 mi South 18.4 mph 28.8 mph 0.04 in Rain Light Rain
9:54 AM 59.0 °F - 59.0 °F 100% 29.38 in 1.8 mi South 16.1 mph 21.9 mph 0.07 in Rain Light Rain
10:01 AM 59.0 °F - 59.0 °F 100% 29.35 in 2.5 mi South 17.3 mph - 0.01 in Rain Light Rain
10:08 AM 59.0 °F - 59.0 °F 100% 29.35 in 8.0 mi SSW 13.8 mph 23.0 mph 0.01 in Rain Light Rain
10:54 AM 59.0 °F - 59.0 °F 100% 29.35 in 4.0 mi SSW 12.7 mph - 0.05 in Rain Rain
11:07 AM 60.1 °F - 59.0 °F 96% 29.32 in 3.0 mi SW 12.7 mph - 0.05 in Rain Rain
11:54 AM 59.0 °F - 57.9 °F 96% 29.31 in 6.0 mi SSW 10.4 mph - 0.18 in Rain Light Rain
12:54 PM 57.9 °F - 57.9 °F 100% 29.29 in 10.0 mi SSW 9.2 mph - 0.06 in Rain Light Rain
1:19 PM 57.0 °F - 57.0 °F 100% 29.26 in 6.0 mi West 11.5 mph - 0.03 in Rain Rain
1:39 PM 55.0 °F - 54.0 °F 96% 29.27 in 6.0 mi West 11.5 mph - 0.06 in Rain Light Rain
1:49 PM 53.6 °F - 51.8 °F 94% 29.27 in 1.0 mi WNW 15.0 mph - 0.06 in Rain Light Rain
1:54 PM 51.1 °F - 50.0 °F 96% 29.28 in 1.0 mi WNW 15.0 mph - 0.07 in Rain Light Rain
2:09 PM 48.0 °F - 46.9 °F 96% 29.25 in 8.0 mi WNW 16.1 mph 23.0 mph 0.00 in Rain Light Rain
2:32 PM 46.9 °F - 46.0 °F 97% 29.28 in 9.0 mi West 12.7 mph 26.5 mph 0.00 in   Overcast
2:54 PM 46.0 °F 39.9 °F 45.0 °F 96% 29.28 in 9.0 mi WNW 13.8 mph - 0.01 in Rain Light Rain
3:01 PM 46.0 °F 39.3 °F 45.0 °F 96% 29.27 in 10.0 mi West 16.1 mph - 0.00 in Rain Light Rain
3:26 PM 45.0 °F 38.5 °F 44.1 °F 97% 29.27 in 10.0 mi West 13.8 mph - 0.01 in Rain Light Rain
3:54 PM 44.1 °F 38.1 °F 43.0 °F 96% 29.27 in 10.0 mi NW 11.5 mph 18.4 mph 0.02 in Rain Light Rain
4:18 PM 43.0 °F 36.8 °F 42.1 °F 97% 29.26 in 10.0 mi WNW 11.5 mph - 0.00 in   Overcast
4:36 PM 42.1 °F 35.2 °F 41.0 °F 96% 29.27 in 10.0 mi WNW 12.7 mph 20.7 mph 0.00 in Rain Light Rain
4:54 PM 42.1 °F 34.5 °F 39.9 °F 92% 29.26 in 10.0 mi NW 15.0 mph - 0.00 in Rain Light Rain
5:54 PM 39.9 °F 32.9 °F 39.0 °F 97% 29.28 in 7.0 mi West 11.5 mph - 0.04 in Rain Rain
6:54 PM 37.9 °F 28.9 °F 37.0 °F 97% 29.28 in 10.0 mi WNW 16.1 mph - 0.06 in Rain Light Rain
7:54 PM 36.0 °F 25.3 °F 34.0 °F 93% 29.33 in 8.0 mi WNW 19.6 mph 32.2 mph 0.01 in Rain Light Rain
8:11 PM 36.0 °F 25.6 °F 34.0 °F 93% 29.32 in 7.0 mi WNW 18.4 mph 33.4 mph 0.00 in Rain Light Rain
8:54 PM 34.0 °F 22.1 °F 32.0 °F 92% 29.35 in 10.0 mi WNW 21.9 mph 34.5 mph 0.02 in   Mostly Cloudy
9:54 PM 33.1 °F 21.2 °F 30.9 °F 92% 29.38 in 10.0 mi WNW 20.7 mph 27.6 mph N/A   Overcast
10:07 PM 33.1 °F 19.8 °F 30.9 °F 92% 29.36 in 10.0 mi WNW 26.5 mph 33.4 mph N/A   Mostly Cloudy
10:22 PM 33.1 °F 20.9 °F 30.0 °F 89% 29.37 in 10.0 mi WNW 21.9 mph 34.5 mph N/A   Scattered Clouds
10:54 PM 33.1 °F 21.5 °F 30.0 °F 89% 29.41 in 10.0 mi WNW 19.6 mph 24.2 mph N/A   Mostly Cloudy
11:54 PM 33.1 °F 20.9 °F 28.0 °F 82% 29.47 in 10.0 mi West 21.9 mph 32.2 mph N/A   Mostly Cloudy